DAL2992 KMIA-KRDU

Flight info

Callsign DAL2992
Flight time N/A
Altitude 35000
Route ALTNN2 DUCEN Q87 VIYAP OLBEC Q69 GURGE PETTO DMSTR2
Aircraft A319/M-SDE3FGHIRWY/LB1

Departure

Time 2026-05-06 22:23
Airport Miami International Airport (KMIA)

Arrival

Time N/A
Airport Raleigh-Durham International Airport (KRDU)
Time Latitude Longitude Altitude Speed Heading
2026-05-06 21:53 25.79220 -80.27710 15 ft 0 kts 95°
2026-05-06 22:09 25.79220 -80.27711 15 ft 1 kts 95°
2026-05-06 22:09 25.79224 -80.27737 15 ft 4 kts 109°
2026-05-06 22:10 25.79231 -80.27755 17 ft 4 kts 130°
2026-05-06 22:10 25.79248 -80.27768 16 ft 0 kts 169°
2026-05-06 22:10 25.79226 -80.27765 15 ft 4 kts 175°
2026-05-06 22:10 25.79196 -80.27768 15 ft 4 kts 190°
2026-05-06 22:11 25.79175 -80.27771 15 ft 2 kts 184°
2026-05-06 22:11 25.79158 -80.27773 15 ft 4 kts 184°
2026-05-06 22:11 25.79131 -80.27775 15 ft 4 kts 184°
2026-05-06 22:11 25.79108 -80.27777 15 ft 2 kts 184°
2026-05-06 22:12 25.79084 -80.27784 15 ft 4 kts 201°
2026-05-06 22:12 25.79064 -80.27793 15 ft 4 kts 202°
2026-05-06 22:12 25.79039 -80.27805 15 ft 4 kts 202°
2026-05-06 22:12 25.79014 -80.27816 15 ft 4 kts 202°
2026-05-06 22:13 25.79001 -80.27822 15 ft 0 kts 202°
2026-05-06 22:15 25.79000 -80.27823 15 ft 1 kts 202°
2026-05-06 22:16 25.78977 -80.27833 15 ft 5 kts 202°
2026-05-06 22:16 25.78946 -80.27851 15 ft 4 kts 234°
2026-05-06 22:16 25.78938 -80.27889 16 ft 6 kts 266°
2026-05-06 22:16 25.78945 -80.27943 17 ft 8 kts 305°
2026-05-06 22:17 25.78956 -80.27966 16 ft 8 kts 298°
2026-05-06 22:17 25.78962 -80.27977 16 ft 8 kts 298°
2026-05-06 22:17 25.78991 -80.28035 16 ft 9 kts 301°
2026-05-06 22:17 25.79028 -80.28105 16 ft 13 kts 299°
2026-05-06 22:18 25.79069 -80.28188 16 ft 12 kts 298°
2026-05-06 22:18 25.79115 -80.28270 16 ft 13 kts 308°
2026-05-06 22:18 25.79162 -80.28360 15 ft 14 kts 299°
2026-05-06 22:18 25.79229 -80.28428 15 ft 13 kts 301°
2026-05-06 22:19 25.79275 -80.28520 15 ft 15 kts 300°
2026-05-06 22:19 25.79333 -80.28634 15 ft 19 kts 300°
2026-05-06 22:19 25.79403 -80.28770 15 ft 21 kts 300°
2026-05-06 22:19 25.79475 -80.28911 15 ft 21 kts 299°
2026-05-06 22:20 25.79548 -80.29053 15 ft 21 kts 299°
2026-05-06 22:20 25.79621 -80.29197 15 ft 22 kts 300°
2026-05-06 22:20 25.79696 -80.29343 15 ft 22 kts 299°
2026-05-06 22:20 25.79771 -80.29490 15 ft 22 kts 299°
2026-05-06 22:21 25.79847 -80.29640 15 ft 22 kts 299°
2026-05-06 22:21 25.79917 -80.29792 14 ft 22 kts 294°
2026-05-06 22:21 25.79971 -80.29947 13 ft 21 kts 283°
2026-05-06 22:21 25.80008 -80.30084 15 ft 15 kts 286°
2026-05-06 22:22 25.80064 -80.30126 14 ft 11 kts 42°
2026-05-06 22:22 25.80074 -80.30075 14 ft 0 kts 87°
2026-05-06 22:22 25.80074 -80.30063 13 ft 7 kts 87°
2026-05-06 22:22 25.80088 -80.29721 14 ft 80 kts 87°
2026-05-06 22:23 25.80124 -80.28876 18 ft 135 kts 87°
2026-05-06 22:23 25.80172 -80.27708 277 ft 158 kts 86°
2026-05-06 22:23 25.80243 -80.26475 964 ft 160 kts 88°
2026-05-06 22:23 25.80312 -80.25195 1444 ft 176 kts 89°
2026-05-06 22:24 25.80375 -80.23752 1789 ft 201 kts 88°
2026-05-06 22:24 25.80436 -80.22135 2203 ft 224 kts 89°
2026-05-06 22:24 25.80499 -80.20308 2679 ft 249 kts 88°
2026-05-06 22:24 25.80593 -80.18325 3346 ft 264 kts 82°
2026-05-06 22:25 25.81355 -80.16465 4127 ft 272 kts 46°
2026-05-06 22:25 25.82967 -80.15384 5000 ft 275 kts 13°
2026-05-06 22:25 25.84876 -80.15125 5925 ft 277 kts 360°
2026-05-06 22:25 25.86814 -80.15205 6830 ft 280 kts 356°
2026-05-06 22:26 25.88745 -80.15388 7706 ft 282 kts 351°
2026-05-06 22:26 25.90623 -80.16024 8582 ft 284 kts 337°
2026-05-06 22:26 25.92468 -80.16847 9442 ft 286 kts 341°
2026-05-06 22:26 25.94355 -80.17560 10245 ft 290 kts 343°
2026-05-06 22:27 25.96363 -80.18252 10508 ft 313 kts 345°
2026-05-06 22:27 25.98510 -80.18932 10952 ft 325 kts 349°
2026-05-06 22:27 26.00766 -80.19229 11616 ft 328 kts 357°
2026-05-06 22:27 26.03031 -80.19428 12330 ft 331 kts 356°
2026-05-06 22:28 26.05340 -80.19657 13070 ft 333 kts 356°
2026-05-06 22:28 26.07662 -80.19901 13797 ft 335 kts 356°
2026-05-06 22:28 26.09972 -80.20148 14419 ft 338 kts 356°
2026-05-06 22:28 26.12329 -80.20397 15014 ft 341 kts 355°
2026-05-06 22:29 26.14713 -80.20647 15597 ft 344 kts 355°
2026-05-06 22:29 26.17090 -80.20894 16169 ft 348 kts 355°
2026-05-06 22:29 26.19519 -80.21148 16761 ft 351 kts 354°
2026-05-06 22:29 26.21969 -80.21392 17310 ft 355 kts 355°
2026-05-06 22:30 26.24448 -80.21618 17881 ft 358 kts 354°
2026-05-06 22:30 26.26923 -80.21834 18423 ft 361 kts 354°
2026-05-06 22:30 26.29446 -80.22056 18918 ft 364 kts 354°
2026-05-06 22:30 26.31981 -80.22277 19444 ft 366 kts 354°
2026-05-06 22:31 26.34537 -80.22496 19972 ft 368 kts 353°
2026-05-06 22:31 26.37100 -80.22720 20510 ft 370 kts 353°
2026-05-06 22:31 26.39648 -80.22953 21036 ft 372 kts 352°
2026-05-06 22:31 26.42236 -80.23214 21565 ft 373 kts 352°
2026-05-06 22:32 26.44838 -80.23491 22095 ft 375 kts 351°
2026-05-06 22:32 26.47450 -80.23771 22614 ft 378 kts 351°
2026-05-06 22:32 26.50076 -80.24049 23153 ft 380 kts 351°
2026-05-06 22:32 26.52684 -80.24318 23657 ft 382 kts 351°
2026-05-06 22:33 26.55356 -80.24591 24079 ft 384 kts 351°
2026-05-06 22:33 26.58030 -80.24903 24480 ft 386 kts 349°
2026-05-06 22:33 26.60695 -80.25308 24865 ft 388 kts 347°
2026-05-06 22:33 26.63338 -80.25765 25240 ft 390 kts 347°
2026-05-06 22:34 26.66033 -80.26251 25623 ft 392 kts 347°
2026-05-06 22:34 26.68747 -80.26738 26012 ft 395 kts 347°
2026-05-06 22:34 26.71425 -80.27415 26385 ft 393 kts 338°
2026-05-06 22:34 26.73968 -80.28465 26758 ft 395 kts 336°
2026-05-06 22:35 26.76554 -80.29553 27119 ft 397 kts 336°
2026-05-06 22:35 26.79153 -80.30640 27482 ft 399 kts 336°
2026-05-06 22:35 26.81742 -80.31721 27829 ft 402 kts 336°
2026-05-06 22:35 26.84377 -80.32825 28202 ft 404 kts 335°
2026-05-06 22:36 26.87021 -80.33931 28590 ft 406 kts 335°
2026-05-06 22:36 26.89672 -80.35044 28956 ft 408 kts 335°
2026-05-06 22:36 26.92351 -80.36165 29316 ft 411 kts 336°
2026-05-06 22:36 26.95013 -80.37274 29668 ft 413 kts 336°
2026-05-06 22:37 26.97730 -80.38386 30015 ft 415 kts 336°
2026-05-06 22:37 27.00457 -80.39483 30329 ft 418 kts 336°
2026-05-06 22:37 27.03206 -80.40581 30617 ft 420 kts 336°
2026-05-06 22:37 27.05966 -80.41679 30913 ft 421 kts 336°
2026-05-06 22:38 27.08703 -80.42773 31203 ft 423 kts 336°
2026-05-06 22:38 27.11477 -80.43916 31495 ft 424 kts 335°
2026-05-06 22:38 27.14239 -80.45114 31788 ft 425 kts 334°
2026-05-06 22:38 27.16998 -80.46349 32108 ft 426 kts 334°
2026-05-06 22:39 27.19714 -80.47580 32424 ft 426 kts 334°
2026-05-06 22:39 27.22461 -80.48820 32844 ft 424 kts 334°
2026-05-06 22:39 27.25197 -80.50045 33269 ft 422 kts 334°
2026-05-06 22:39 27.27932 -80.51262 33665 ft 421 kts 334°
2026-05-06 22:40 27.30663 -80.52468 34063 ft 420 kts 334°
2026-05-06 22:40 27.33383 -80.53666 34419 ft 419 kts 334°
2026-05-06 22:40 27.36054 -80.54846 34737 ft 418 kts 334°
2026-05-06 22:40 27.38770 -80.56020 35002 ft 419 kts 335°
2026-05-06 22:41 27.47043 -80.59291 35088 ft 420 kts 336°
2026-05-06 22:42 27.52551 -80.61420 35084 ft 421 kts 336°
2026-05-06 22:42 27.58090 -80.63611 35076 ft 420 kts 336°
2026-05-06 22:43 27.63578 -80.65812 35075 ft 420 kts 336°
2026-05-06 22:43 27.69105 -80.68026 35076 ft 420 kts 336°
2026-05-06 22:44 27.74609 -80.70227 35076 ft 420 kts 336°
2026-05-06 22:44 27.80133 -80.72435 35088 ft 420 kts 335°
2026-05-06 22:45 27.85651 -80.74641 35089 ft 420 kts 336°
2026-05-06 22:45 27.91132 -80.76830 35080 ft 419 kts 335°
2026-05-06 22:46 27.96637 -80.79044 35079 ft 419 kts 335°
2026-05-06 22:46 28.02117 -80.81247 35080 ft 419 kts 335°
2026-05-06 22:47 28.07635 -80.83460 35099 ft 419 kts 335°
2026-05-06 22:47 28.13108 -80.85660 35099 ft 418 kts 335°
2026-05-06 22:48 28.18591 -80.87870 35093 ft 418 kts 335°
2026-05-06 22:48 28.24049 -80.90078 35093 ft 417 kts 335°
2026-05-06 22:49 28.29506 -80.92285 35085 ft 417 kts 335°
2026-05-06 22:49 28.34996 -80.94500 35087 ft 418 kts 335°
2026-05-06 22:50 28.40488 -80.96724 35097 ft 418 kts 335°
2026-05-06 22:50 28.45945 -80.98934 35102 ft 417 kts 335°
2026-05-06 22:51 28.51400 -81.01140 35095 ft 417 kts 335°
2026-05-06 22:51 28.56887 -81.03361 35092 ft 417 kts 335°
2026-05-06 22:52 28.62336 -81.05579 35069 ft 417 kts 335°
2026-05-06 22:52 28.67810 -81.07815 35086 ft 417 kts 334°
2026-05-06 22:53 28.73253 -81.10030 35082 ft 417 kts 334°
2026-05-06 22:53 28.78717 -81.12252 35068 ft 416 kts 334°
2026-05-06 22:54 28.84146 -81.14471 35075 ft 416 kts 334°
2026-05-06 22:54 28.89619 -81.16710 35072 ft 416 kts 334°
2026-05-06 22:55 28.95037 -81.18931 35069 ft 415 kts 334°
2026-05-06 22:55 29.00488 -81.21170 35085 ft 415 kts 334°
2026-05-06 22:56 29.05897 -81.23389 35081 ft 415 kts 334°
2026-05-06 22:56 29.11347 -81.25617 35078 ft 414 kts 334°
2026-05-06 22:57 29.16762 -81.27835 35075 ft 414 kts 334°
2026-05-06 22:57 29.22192 -81.30069 35071 ft 414 kts 334°
2026-05-06 22:58 29.27704 -81.32126 35087 ft 422 kts 342°
2026-05-06 22:58 29.33610 -81.32669 35081 ft 430 kts 349°
2026-05-06 22:59 29.39590 -81.33010 35075 ft 430 kts 349°
2026-05-06 22:59 29.45534 -81.33362 35072 ft 430 kts 349°
2026-05-06 23:00 29.51494 -81.33711 35068 ft 430 kts 349°
2026-05-06 23:00 29.57486 -81.34068 35097 ft 430 kts 349°
2026-05-06 23:01 29.63427 -81.34422 35090 ft 430 kts 349°
2026-05-06 23:01 29.68405 -81.34719 35084 ft 430 kts 349°
2026-05-06 23:02 29.74393 -81.35078 35075 ft 430 kts 349°
2026-05-06 23:02 29.80355 -81.35431 35069 ft 430 kts 349°
2026-05-06 23:03 29.86313 -81.35786 35082 ft 430 kts 349°
2026-05-06 23:03 29.92306 -81.36142 35077 ft 430 kts 349°